This demonstration page uses our WeatherBlox Daily Observations layout. Learn more.

Left ArrowRight Arrow

34.02893, -84.19858

Hourly Observations for November 14, 2022

Temp ( °F °C ) Dew Point ( °F °C ) Humidity (%) Winds ( mph kmh ) Pressure ( in mb ) Visibility ( mi km ) Precip ( " mm )
12:53 am 00:53 Clear 29 -1.7 25 -3.9 85 85 N 5 7 30.24 1024 10 16 0.00 0.00
1:53 am 01:53 Clear 32 0 27 -2.8 81 81 Calm 30.25 1024 10 16 0.00 0.00
2:53 am 02:53 Clear 34 1.1 27 -2.8 75 75 VRB 6 9 30.25 1024 10 16 0.00 0.00
3:53 am 03:53 Clear 35 1.7 26 -3.3 69 69 VRB 6 9 30.26 1025 10 16 0.00 0.00
4:53 am 04:53 Clear 34 1.1 26 -3.3 72 72 VRB 5 7 30.29 1026 10 16 0.00 0.00
5:53 am 05:53 Clear 33 0.6 26 -3.3 75 75 Calm 30.30 1026 10 16 0.00 0.00
6:53 am 06:53 Clear 32 0 26 -3.3 78 78 VRB 3 6 30.33 1027 10 16 0.00 0.00
7:53 am 07:53 Sunny 34 1.1 26 -3.3 72 72 E 6 9 30.35 1028 10 16 0.00 0.00
8:53 am 08:53 Sunny 37 2.8 26 -3.3 64 64 ENE 8 13 30.36 1028 10 16 0.00 0.00
9:53 am 09:53 Sunny 41 5 26 -3.3 55 55 VRB 7 11 30.35 1028 10 16 0.00 0.00
10:53 am 10:53 Sunny 44 6.7 27 -2.8 51 51 VRB 5 7 30.35 1028 10 16 0.00 0.00
11:53 am 11:53 Sunny 46 7.8 28 -2.2 49 49 E 6 9 30.33 1027 10 16 0.00 0.00
12:53 pm 12:53 Sunny 47 8.3 28 -2.2 47 47 VRB 5 7 30.30 1026 10 16 0.00 0.00
1:53 pm 13:53 Sunny 50 10 29 -1.7 44 44 VRB 6 9 30.27 1025 10 16 0.00 0.00
2:53 pm 14:53 Sunny 51 10.6 29 -1.7 42 42 E 7 11 30.24 1024 10 16 0.00 0.00
3:53 pm 15:53 Sunny 50 10 29 -1.7 44 44 VRB 6 9 30.24 1024 10 16 0.00 0.00
4:53 pm 16:53 Sunny 49 9.4 29 -1.7 46 46 VRB 6 9 30.23 1024 10 16 0.00 0.00
5:53 pm 17:53 Clear 47 8.3 29 -1.7 49 49 VRB 5 7 30.22 1023 10 16 0.00 0.00
6:53 pm 18:53 Mostly Cloudy 46 7.8 30 -1.1 53 53 VRB 6 9 30.24 1024 10 16 0.00 0.00
7:53 pm 19:53 Cloudy 46 7.8 30 -1.1 53 53 VRB 6 9 30.24 1024 10 16 0.00 0.00
8:53 pm 20:53 Mostly Cloudy 46 7.8 30 -1.1 53 53 VRB 5 7 30.23 1024 10 16 0.00 0.00
9:53 pm 21:53 Mostly Cloudy 46 7.8 31 -0.6 55 55 VRB 6 9 30.23 1024 10 16 0.00 0.00
10:53 pm 22:53 Cloudy 46 7.8 32 0 58 58 E 8 13 30.22 1023 10 16 0.00 0.00
11:23 pm 23:23 Cloudy 47 8.3 32 0 56 56 VRB 5 7 30.20 1023 10 16 0.00 0.00
11:53 pm 23:53 Cloudy 47 8.3 33 0.6 58 58 undefined N/A 30.21 1023 10 16 0.00 0.00

Powered by AerisWeather